| time (UTC) | temp F | wind direction | speed MPH | gust MPH | rain 1hr in | rain 24hr in | rain mn in | humidity % | barometer mb |
| 20260502194114 | 73 | 37 | 7.0 | 8.0 | 0.00 | 0.01 | 0.01 | 42 | 1018.6 |
| 20260502193611 | 74 | 318 | 2.0 | 3.0 | 0.00 | 0.01 | 0.01 | 43 | 1018.7 |
| 20260502193108 | 74 | 313 | 1.0 | 2.0 | 0.00 | 0.01 | 0.01 | 41 | 1019.0 |
| 20260502192604 | 73 | 83 | 2.0 | 2.0 | 0.00 | 0.01 | 0.01 | 48 | 1018.6 |
| 20260502192102 | 73 | 223 | 1.0 | 1.0 | 0.00 | 0.01 | 0.01 | 48 | 1018.8 |
| 20260502191558 | 73 | 141 | 0.0 | 1.0 | 0.00 | 0.01 | 0.01 | 44 | 1018.7 |
| 20260502191056 | 72 | 261 | 0.0 | 1.0 | 0.00 | 0.01 | 0.01 | 41 | 1018.7 |
| 20260502190553 | 73 | 138 | 1.0 | 2.0 | 0.00 | 0.01 | 0.01 | 42 | 1018.7 |
| 20260502190044 | 73 | 15 | 3.0 | 5.0 | 0.00 | 0.01 | 0.01 | 44 | 1018.9 |
| 20260502185539 | 73 | 221 | 0.0 | 0.0 | 0.00 | 0.01 | 0.01 | 46 | 1018.8 |
| 20260502185037 | 72 | 310 | 1.0 | 2.0 | 0.00 | 0.01 | 0.01 | 50 | 1019.1 |
| 20260502184532 | 72 | 154 | 2.0 | 3.0 | 0.00 | 0.01 | 0.01 | 44 | 1018.9 |
| 20260502184028 | 71 | 276 | 1.0 | 2.0 | 0.00 | 0.01 | 0.01 | 41 | 1018.9 |
| 20260502183524 | 73 | 164 | 2.0 | 3.0 | 0.00 | 0.01 | 0.01 | 45 | 1019.2 |
| 20260502183021 | 72 | 327 | 2.0 | 2.0 | 0.00 | 0.01 | 0.01 | 50 | 1019.2 |
| 20260502182515 | 72 | 332 | 3.0 | 3.0 | 0.00 | 0.01 | 0.01 | 44 | 1019.2 |
| 20260502182012 | 72 | 226 | 0.0 | 0.0 | 0.00 | 0.01 | 0.01 | 53 | 1019.1 |
| 20260502181510 | 71 | 45 | 3.0 | 3.0 | 0.00 | 0.01 | 0.01 | 48 | 1019.3 |
| 20260502181008 | 71 | 143 | 0.0 | 1.0 | 0.00 | 0.01 | 0.01 | 47 | 1019.3 |
| 20260502180505 | 71 | 101 | 1.0 | 1.0 | 0.00 | 0.01 | 0.01 | 48 | 1019.3 |
| 20260502170424 | 70 | 306 | 2.0 | 6.0 | 0.00 | 0.01 | 0.01 | 52 | 1020.0 |
| 20260502163902 | 69 | 287 | 0.0 | 0.0 | 0.00 | 0.01 | 0.01 | 54 | 1020.2 |
| 20260502163358 | 69 | 25 | 2.0 | 3.0 | 0.00 | 0.01 | 0.01 | 56 | 1020.0 |
| 20260502162856 | 68 | 46 | 3.0 | 3.0 | 0.00 | 0.01 | 0.01 | 55 | 1020.0 |
| 20260502162352 | 67 | 306 | 2.0 | 2.0 | 0.00 | 0.01 | 0.01 | 60 | 1019.9 |
| 20260502161849 | 66 | 330 | 1.0 | 2.0 | 0.00 | 0.01 | 0.01 | 60 | 1020.0 |
| 20260502161345 | 61 | 256 | 0.0 | 0.0 | 0.00 | 0.01 | 0.01 | 75 | 1020.0 |
| 20260502160844 | 58 | 73 | 0.0 | 1.0 | 0.00 | 0.01 | 0.01 | 99 | 1019.9 |
| 20260502160341 | 57 | 254 | 0.0 | 1.0 | 0.00 | 0.01 | 0.01 | 99 | 1019.9 |
| 20260502152317 | 57 | 86 | 2.0 | 2.0 | 0.00 | 0.01 | 0.01 | 99 | 1019.4 |
| 20260502151814 | 58 | 220 | 0.0 | 0.0 | 0.00 | 0.01 | 0.01 | 99 | 1019.6 |
| 20260502151311 | 55 | 309 | 0.0 | 0.0 | 0.00 | 0.01 | 0.01 | 99 | 1019.4 |
| 20260502150809 | 55 | 325 | 0.0 | 1.0 | 0.00 | 0.01 | 0.01 | 99 | 1019.7 |
| 20260502150304 | 56 | 22 | 2.0 | 2.0 | 0.00 | 0.01 | 0.01 | 98 | 1019.5 |
| 20260502130653 | 53 | 268 | 0.0 | 0.0 | 0.00 | 0.01 | 0.01 | 97 | 1018.1 |
| 20260502130151 | 53 | 320 | 0.0 | 0.0 | 0.00 | 0.01 | 0.01 | 97 | 1018.0 |
| 20260502123630 | 52 | 61 | 0.0 | 0.0 | 0.00 | 0.01 | 0.01 | 97 | 1017.8 |
| 20260502123126 | 52 | 255 | 0.0 | 0.0 | 0.00 | 0.01 | 0.01 | 97 | 1017.7 |
| 20260502122624 | 52 | 260 | 0.0 | 0.0 | 0.00 | 0.01 | 0.01 | 96 | 1017.9 |
| 20260502122120 | 52 | 250 | 0.0 | 0.0 | 0.00 | 0.01 | 0.01 | 96 | 1017.6 |
| 20260502121619 | 52 | 244 | 0.0 | 0.0 | 0.00 | 0.01 | 0.01 | 96 | 1017.6 |
| 20260502121116 | 52 | 252 | 0.0 | 0.0 | 0.00 | 0.01 | 0.01 | 96 | 1017.3 |
| 20260502120612 | 51 | 252 | 0.0 | 0.0 | 0.00 | 0.01 | 0.01 | 96 | 1017.2 |
| 20260502120109 | 51 | 283 | 0.0 | 0.0 | 0.00 | 0.01 | 0.01 | 96 | 1017.3 |
| 20260502115607 | 51 | 262 | 0.0 | 0.0 | 0.00 | 0.01 | 0.01 | 96 | 1017.2 |
| 20260502115102 | 51 | 249 | 0.0 | 0.0 | 0.00 | 0.01 | 0.01 | 96 | 1016.9 |
| 20260502114559 | 51 | 260 | 0.0 | 0.0 | 0.00 | 0.01 | 0.01 | 96 | 1017.0 |
| 20260502114056 | 51 | 276 | 0.0 | 0.0 | 0.00 | 0.01 | 0.01 | 96 | 1016.9 |
| 20260502113554 | 51 | 251 | 0.0 | 0.0 | 0.00 | 0.01 | 0.01 | 96 | 1016.7 |
| 20260502113052 | 51 | 261 | 0.0 | 0.0 | 0.00 | 0.01 | 0.01 | 96 | 1016.9 |
| 20260502112549 | 51 | 267 | 0.0 | 0.0 | 0.00 | 0.01 | 0.01 | 96 | 1016.9 |
| 20260502112047 | 51 | 261 | 0.0 | 0.0 | 0.00 | 0.01 | 0.01 | 96 | 1016.4 |
| 20260502111544 | 51 | 260 | 0.0 | 0.0 | 0.00 | 0.01 | 0.01 | 96 | 1016.2 |
| 20260502111042 | 51 | 269 | 0.0 | 0.0 | 0.00 | 0.01 | 0.01 | 96 | 1016.1 |
| 20260502110539 | 51 | 263 | 0.0 | 0.0 | 0.00 | 0.01 | 0.01 | 96 | 1016.3 |
| 20260502110036 | 51 | 263 | 0.0 | 0.0 | 0.00 | 0.01 | 0.01 | 96 | 1016.1 |
| 20260502105533 | 51 | 269 | 0.0 | 0.0 | 0.00 | 0.01 | 0.01 | 96 | 1016.0 |
| 20260502105031 | 51 | 294 | 0.0 | 0.0 | 0.00 | 0.01 | 0.01 | 96 | 1016.1 |
| 20260502104528 | 51 | 43 | 0.0 | 1.0 | 0.00 | 0.01 | 0.01 | 96 | 1016.1 |
| 20260502104025 | 52 | 239 | 0.0 | 0.0 | 0.00 | 0.01 | 0.01 | 96 | 1016.1 |
| 20260502103523 | 51 | 275 | 0.0 | 0.0 | 0.00 | 0.01 | 0.01 | 96 | 1016.0 |
| 20260502103021 | 52 | 283 | 0.0 | 0.0 | 0.00 | 0.01 | 0.01 | 96 | 1015.9 |
| 20260502102517 | 52 | 266 | 0.0 | 0.0 | 0.00 | 0.01 | 0.01 | 96 | 1015.8 |
| 20260502102014 | 52 | 272 | 0.0 | 0.0 | 0.00 | 0.01 | 0.01 | 96 | 1015.8 |
| 20260502101512 | 52 | 273 | 0.0 | 0.0 | 0.00 | 0.01 | 0.01 | 96 | 1015.9 |
| 20260502101010 | 52 | 273 | 0.0 | 0.0 | 0.00 | 0.01 | 0.01 | 96 | 1015.7 |
| 20260502100508 | 52 | 290 | 0.0 | 0.0 | 0.00 | 0.01 | 0.01 | 96 | 1015.6 |
| 20260502091443 | 53 | 274 | 0.0 | 0.0 | 0.00 | 0.01 | 0.01 | 96 | 1016.0 |
| 20260502090940 | 53 | 293 | 0.0 | 0.0 | 0.00 | 0.01 | 0.01 | 97 | 1015.7 |
| 20260502090437 | 53 | 269 | 0.0 | 0.0 | 0.00 | 0.01 | 0.01 | 96 | 1015.9 |
| 20260502071331 | 52 | 272 | 0.0 | 0.0 | 0.00 | 0.01 | 0.01 | 96 | 1015.3 |
| 20260502070830 | 52 | 271 | 0.0 | 0.0 | 0.00 | 0.01 | 0.01 | 96 | 1015.2 |
| 20260502070327 | 52 | 271 | 0.0 | 0.0 | 0.00 | 0.01 | 0.01 | 96 | 1015.3 |
| 20260502065826 | 52 | 264 | 0.0 | 0.0 | 0.00 | 0.01 | 0.01 | 96 | 1015.1 |
| 20260502065323 | 52 | 249 | 0.0 | 0.0 | 0.00 | 0.01 | 0.01 | 96 | 1015.5 |
| 20260502064821 | 52 | 282 | 0.0 | 0.0 | 0.00 | 0.01 | 0.01 | 96 | 1015.5 |
| 20260502064319 | 52 | 294 | 0.0 | 0.0 | 0.00 | 0.01 | 0.01 | 96 | 1015.4 |
| 20260502063816 | 52 | 260 | 0.0 | 0.0 | 0.00 | 0.01 | 0.01 | 96 | 1015.6 |
| 20260502063314 | 52 | 252 | 0.0 | 0.0 | 0.00 | 0.01 | 0.01 | 96 | 1015.9 |
| 20260502062810 | 52 | 243 | 0.0 | 0.0 | 0.00 | 0.01 | 0.01 | 96 | 1015.7 |
| 20260502062308 | 52 | 269 | 0.0 | 0.0 | 0.00 | 0.01 | 0.01 | 96 | 1015.9 |
| 20260502061807 | 52 | 271 | 0.0 | 0.0 | 0.00 | 0.01 | 0.01 | 96 | 1016.1 |
| 20260502061304 | 52 | 292 | 0.0 | 0.0 | 0.00 | 0.01 | 0.01 | 96 | 1016.2 |
| 20260502060759 | 52 | 268 | 0.0 | 0.0 | 0.00 | 0.01 | 0.01 | 96 | 1015.9 |
| 20260502060255 | 52 | 270 | 0.0 | 0.0 | 0.00 | 0.01 | 0.01 | 96 | 1015.8 |
| 20260502055753 | 52 | 283 | 0.0 | 0.0 | 0.00 | 0.01 | 0.01 | 96 | 1016.2 |
| 20260502055250 | 52 | 265 | 0.0 | 0.0 | 0.00 | 0.01 | 0.01 | 96 | 1016.3 |
| 20260502054750 | 52 | 269 | 0.0 | 0.0 | 0.07 | 0.01 | 0.01 | 96 | 1016.0 |
| 20260502054247 | 52 | 268 | 0.0 | 0.0 | 0.07 | 0.01 | 0.01 | 96 | 1016.2 |
| 20260502053744 | 52 | 253 | 0.0 | 0.0 | 0.07 | 0.01 | 0.01 | 96 | 1016.1 |
| 20260502053241 | 52 | 275 | 0.0 | 0.0 | 0.00 | 0.00 | 0.00 | 96 | 1016.3 |
| 20260502052739 | 52 | 287 | 0.0 | 0.0 | 0.00 | 0.00 | 0.00 | 96 | 1016.4 |
| 20260502052237 | 52 | 277 | 0.0 | 0.0 | 0.00 | 0.00 | 0.00 | 96 | 1016.4 |
| 20260502051735 | 52 | 272 | 0.0 | 0.0 | 0.00 | 0.00 | 0.00 | 96 | 1016.3 |
| 20260502051233 | 52 | 272 | 0.0 | 0.0 | 0.00 | 0.00 | 0.00 | 96 | 1016.2 |
| 20260502050729 | 52 | 281 | 0.0 | 0.0 | 0.00 | 0.00 | 0.00 | 96 | 1016.6 |
| 20260502050225 | 52 | 291 | 0.0 | 0.0 | 0.05 | 0.00 | 0.00 | 96 | 1017.1 |
| 20260502045723 | 52 | 268 | 0.0 | 0.0 | 0.05 | 1.74 | 1.74 | 96 | 1016.4 |
| 20260502045219 | 52 | 260 | 0.0 | 0.0 | 0.00 | 1.73 | 1.73 | 96 | 1016.9 |
| 20260502044715 | 51 | 258 | 0.0 | 0.0 | 0.00 | 1.73 | 1.73 | 96 | 1017.1 |
| 20260502044212 | 51 | 255 | 0.0 | 0.0 | 0.00 | 1.73 | 1.73 | 96 | 1017.1 |
| 20260502043710 | 51 | 255 | 0.0 | 0.0 | 0.07 | 1.73 | 1.73 | 96 | 1016.9 |
| 20260502043208 | 51 | 267 | 0.0 | 0.0 | 0.07 | 1.73 | 1.73 | 96 | 1016.7 |
| 20260502042707 | 51 | 267 | 0.0 | 0.0 | 0.12 | 1.73 | 1.73 | 96 | 1017.0 |
| 20260502042204 | 51 | 263 | 0.0 | 0.0 | 0.05 | 1.72 | 1.72 | 96 | 1016.9 |
| 20260502041702 | 51 | 263 | 0.0 | 0.0 | 0.00 | 1.71 | 1.71 | 96 | 1016.3 |
| 20260502041159 | 51 | 255 | 0.0 | 0.0 | 0.00 | 1.71 | 1.71 | 96 | 1016.4 |
| 20260502040655 | 51 | 277 | 0.0 | 0.0 | 0.07 | 1.71 | 1.71 | 96 | 1016.4 |
| 20260502040153 | 51 | 277 | 0.0 | 0.0 | 0.12 | 1.71 | 1.71 | 96 | 1016.4 |
| 20260502035649 | 51 | 272 | 0.0 | 0.0 | 0.12 | 1.70 | 1.70 | 96 | 1016.4 |
| 20260502035146 | 51 | 245 | 0.0 | 0.0 | 0.24 | 1.70 | 1.70 | 96 | 1016.2 |
| 20260502034643 | 51 | 273 | 0.0 | 0.0 | 0.17 | 1.68 | 1.68 | 96 | 1016.4 |
| 20260502034141 | 51 | 287 | 0.0 | 0.0 | 0.12 | 1.66 | 1.66 | 96 | 1016.4 |
| 20260502033639 | 51 | 263 | 0.0 | 0.0 | 0.07 | 1.65 | 1.65 | 96 | 1016.3 |
| 20260502033137 | 51 | 269 | 0.0 | 0.0 | 0.07 | 1.64 | 1.64 | 96 | 1016.6 |
| 20260502032633 | 51 | 259 | 0.0 | 0.0 | 0.07 | 1.64 | 1.64 | 96 | 1016.4 |
| 20260502032129 | 51 | 263 | 0.0 | 0.0 | 0.05 | 1.63 | 1.63 | 96 | 1016.7 |
| 20260502031627 | 51 | 262 | 0.0 | 0.0 | 0.05 | 1.63 | 1.63 | 96 | 1017.0 |
| 20260502031125 | 51 | 263 | 0.0 | 0.0 | 0.00 | 1.62 | 1.62 | 96 | 1016.9 |
| 20260502030624 | 51 | 260 | 0.0 | 0.0 | 0.00 | 1.62 | 1.62 | 96 | 1016.1 |
| 20260502030121 | 51 | 269 | 0.0 | 0.0 | 0.00 | 1.62 | 1.62 | 96 | 1015.6 |
| 20260502025618 | 51 | 269 | 0.0 | 0.0 | 0.07 | 1.62 | 1.62 | 96 | 1015.3 |
| 20260502025116 | 51 | 259 | 0.0 | 0.0 | 0.07 | 1.62 | 1.62 | 96 | 1015.2 |
| 20260502024614 | 51 | 262 | 0.0 | 0.0 | 0.00 | 1.61 | 1.61 | 96 | 1015.2 |
| 20260502024112 | 51 | 262 | 0.0 | 0.0 | 0.05 | 1.61 | 1.61 | 96 | 1015.7 |
| 20260502023609 | 51 | 285 | 0.0 | 0.0 | 0.05 | 1.61 | 1.61 | 96 | 1015.6 |
| 20260502023106 | 51 | 262 | 0.0 | 0.0 | 0.05 | 1.61 | 1.61 | 96 | 1016.1 |
| 20260502022603 | 51 | 284 | 0.0 | 0.0 | 0.00 | 1.60 | 1.60 | 96 | 1016.1 |
| 20260502022100 | 50 | 281 | 0.0 | 0.0 | 0.00 | 1.60 | 1.60 | 96 | 1015.6 |
| 20260502021557 | 51 | 268 | 0.0 | 0.0 | 0.00 | 1.60 | 1.60 | 96 | 1015.2 |
| 20260502021054 | 51 | 269 | 0.0 | 0.0 | 0.00 | 1.60 | 1.60 | 96 | 1014.9 |
| 20260502020552 | 50 | 260 | 0.0 | 0.0 | 0.00 | 1.60 | 1.60 | 96 | 1014.7 |
| 20260502020049 | 50 | 224 | 0.0 | 0.0 | 0.00 | 1.60 | 1.60 | 96 | 1014.9 |
| 20260502015546 | 51 | 288 | 0.0 | 0.0 | 0.00 | 1.60 | 1.60 | 96 | 1014.6 |
| 20260502015042 | 50 | 277 | 0.0 | 0.0 | 0.07 | 1.60 | 1.60 | 96 | 1014.4 |
| 20260502014539 | 50 | 237 | 0.0 | 0.0 | 0.07 | 1.60 | 1.60 | 96 | 1014.3 |
| 20260502014037 | 50 | 224 | 0.0 | 0.0 | 0.00 | 1.59 | 1.59 | 96 | 1014.2 |
| 20260502013532 | 51 | 225 | 0.0 | 0.0 | 0.00 | 1.59 | 1.59 | 96 | 1014.5 |
| 20260502013029 | 50 | 300 | 0.0 | 0.0 | 0.05 | 1.59 | 1.59 | 96 | 1014.3 |
| 20260502012526 | 51 | 243 | 0.0 | 0.0 | 0.05 | 1.59 | 1.59 | 96 | 1014.3 |
| 20260502012024 | 51 | 267 | 0.0 | 1.0 | 0.00 | 1.58 | 1.58 | 96 | 1014.0 |
| 20260502011520 | 51 | 92 | 1.0 | 2.0 | 0.07 | 1.58 | 1.58 | 96 | 1013.8 |
| 20260502011016 | 51 | 21 | 0.0 | 1.0 | 0.07 | 1.58 | 1.58 | 96 | 1013.8 |
| 20260502010514 | 51 | 254 | 0.0 | 0.0 | 0.05 | 1.57 | 1.57 | 96 | 1013.9 |
| 20260502010010 | 51 | 265 | 0.0 | 0.0 | 0.12 | 1.57 | 1.57 | 96 | 1013.8 |
| 20260502005508 | 51 | 231 | 0.0 | 0.0 | 0.12 | 1.56 | 1.56 | 96 | 1014.0 |
| 20260502005006 | 51 | 245 | 0.0 | 0.0 | 0.12 | 1.55 | 1.55 | 96 | 1014.3 |
| 20260502004501 | 51 | 247 | 0.0 | 0.0 | 0.12 | 1.55 | 1.55 | 96 | 1014.4 |
| 20260502003958 | 51 | 256 | 0.0 | 0.0 | 0.12 | 1.53 | 1.53 | 96 | 1014.8 |
| 20260502003455 | 51 | 249 | 0.0 | 0.0 | 0.19 | 1.53 | 1.53 | 96 | 1014.9 |
| 20260502002951 | 51 | 247 | 0.0 | 0.0 | 0.12 | 1.51 | 1.51 | 96 | 1015.1 |
| 20260502002449 | 51 | 242 | 0.0 | 0.0 | 0.17 | 1.50 | 1.50 | 96 | 1015.5 |
| 20260502001947 | 51 | 264 | 0.0 | 0.0 | 0.24 | 1.49 | 1.49 | 96 | 1015.4 |
| 20260502001444 | 51 | 241 | 0.0 | 0.0 | 0.24 | 1.47 | 1.47 | 96 | 1015.3 |
| 20260502000941 | 51 | 257 | 0.0 | 0.0 | 0.31 | 1.45 | 1.45 | 96 | 1015.3 |
| 20260502000440 | 51 | 229 | 0.0 | 0.0 | 0.31 | 1.43 | 1.43 | 96 | 1015.4 |
| 20260501235935 | 51 | 258 | 0.0 | 0.0 | 0.26 | 1.41 | 1.41 | 96 | 1015.2 |
| 20260501235431 | 52 | 239 | 0.0 | 0.0 | 0.19 | 1.38 | 1.38 | 96 | 1014.9 |
| 20260501234927 | 52 | 268 | 0.0 | 0.0 | 0.17 | 1.37 | 1.37 | 96 | 1015.2 |
| 20260501234424 | 52 | 267 | 0.0 | 0.0 | 0.17 | 1.35 | 1.35 | 96 | 1015.2 |
| 20260501233922 | 52 | 255 | 0.0 | 0.0 | 0.24 | 1.34 | 1.34 | 96 | 1014.9 |
| 20260501233419 | 52 | 261 | 1.0 | 1.0 | 0.19 | 1.32 | 1.32 | 96 | 1014.8 |
| 20260501232915 | 52 | 238 | 0.0 | 0.0 | 0.19 | 1.30 | 1.30 | 96 | 1014.7 |
| 20260501232412 | 52 | 224 | 1.0 | 1.0 | 0.19 | 1.29 | 1.29 | 96 | 1014.8 |
| 20260501231909 | 52 | 220 | 0.0 | 0.0 | 0.19 | 1.28 | 1.28 | 96 | 1014.4 |
| 20260501231408 | 52 | 298 | 1.0 | 1.0 | 0.12 | 1.26 | 1.26 | 96 | 1014.3 |
| 20260501230906 | 52 | 283 | 0.0 | 1.0 | 0.19 | 1.25 | 1.25 | 96 | 1014.2 |
| 20260501230404 | 52 | 258 | 0.0 | 0.0 | 0.24 | 1.24 | 1.24 | 96 | 1014.4 |
| 20260501225901 | 52 | 259 | 0.0 | 0.0 | 0.28 | 1.22 | 1.22 | 96 | 1014.6 |
| 20260501225359 | 52 | 244 | 0.0 | 0.0 | 0.28 | 1.20 | 1.20 | 96 | 1014.6 |
| 20260501224855 | 52 | 237 | 0.0 | 0.0 | 0.24 | 1.18 | 1.18 | 96 | 1014.8 |
| 20260501224352 | 52 | 3 | 1.0 | 1.0 | 0.19 | 1.16 | 1.16 | 96 | 1014.5 |
| 20260501223849 | 53 | 278 | 0.0 | 0.0 | 0.19 | 1.14 | 1.14 | 96 | 1014.2 |
| 20260501223345 | 53 | 265 | 0.0 | 0.0 | 0.17 | 1.13 | 1.13 | 96 | 1014.4 |
| 20260501222840 | 53 | 271 | 1.0 | 2.0 | 0.17 | 1.11 | 1.11 | 96 | 1014.1 |
| 20260501222339 | 53 | 60 | 1.0 | 2.0 | 0.12 | 1.10 | 1.10 | 96 | 1014.0 |
| 20260501221835 | 53 | 292 | 0.0 | 0.0 | 0.05 | 1.09 | 1.09 | 96 | 1013.9 |
| 20260501221332 | 53 | 344 | 1.0 | 1.0 | 0.07 | 1.08 | 1.08 | 96 | 1013.6 |
| 20260501220830 | 53 | 4 | 2.0 | 2.0 | 0.07 | 1.08 | 1.08 | 96 | 1012.8 |
| 20260501220327 | 53 | 352 | 1.0 | 1.0 | 0.00 | 1.07 | 1.07 | 96 | 1012.3 |
| 20260501215823 | 53 | 279 | 0.0 | 1.0 | 0.00 | 1.07 | 1.07 | 96 | 1011.7 |
| 20260501215320 | 53 | 309 | 1.0 | 1.0 | 0.05 | 1.07 | 1.07 | 96 | 1011.5 |
| 20260501214815 | 53 | 213 | 0.0 | 0.0 | 0.05 | 1.07 | 1.07 | 96 | 1011.0 |
| 20260501214311 | 53 | 257 | 0.0 | 0.0 | 0.00 | 1.06 | 1.06 | 96 | 1010.9 |
| 20260501213807 | 53 | 237 | 0.0 | 0.0 | 0.00 | 1.06 | 1.06 | 96 | 1011.0 |
| 20260501213303 | 53 | 222 | 0.0 | 1.0 | 0.07 | 1.06 | 1.06 | 96 | 1010.9 |
| 20260501212759 | 53 | 241 | 0.0 | 0.0 | 0.07 | 1.06 | 1.06 | 96 | 1011.2 |
| 20260501212256 | 53 | 262 | 0.0 | 0.0 | 0.05 | 1.05 | 1.05 | 96 | 1011.0 |
| 20260501211754 | 53 | 181 | 2.0 | 2.0 | 0.05 | 1.05 | 1.05 | 96 | 1011.3 |
| 20260501211250 | 53 | 244 | 1.0 | 1.0 | 0.07 | 1.04 | 1.04 | 96 | 1011.6 |
| 20260501210747 | 53 | 250 | 2.0 | 2.0 | 0.07 | 1.04 | 1.04 | 96 | 1011.7 |
| 20260501210244 | 53 | 314 | 1.0 | 1.0 | 0.07 | 1.03 | 1.03 | 96 | 1011.7 |
| 20260501205740 | 53 | 154 | 0.0 | 0.0 | 0.07 | 1.03 | 1.03 | 96 | 1011.1 |
| 20260501205238 | 53 | 203 | 0.0 | 0.0 | 0.05 | 1.02 | 1.02 | 96 | 1011.5 |
| 20260501204734 | 53 | 152 | 0.0 | 0.0 | 0.05 | 1.02 | 1.02 | 96 | 1012.1 |
| 20260501204231 | 53 | 56 | 3.0 | 6.0 | 0.07 | 1.01 | 1.01 | 96 | 1012.2 |
| 20260501203727 | 53 | 229 | 2.0 | 3.0 | 0.12 | 1.01 | 1.01 | 96 | 1012.5 |
| 20260501203225 | 53 | 261 | 0.0 | 0.0 | 0.12 | 1.00 | 1.00 | 96 | 1012.4 |
| 20260501202722 | 53 | 256 | 0.0 | 0.0 | 0.12 | 0.99 | 0.99 | 96 | 1012.6 |
| 20260501202219 | 53 | 332 | 0.0 | 0.0 | 0.12 | 0.98 | 0.98 | 96 | 1012.7 |
| 20260501201715 | 53 | 71 | 0.0 | 0.0 | 0.19 | 0.97 | 0.97 | 96 | 1013.2 |
| 20260501201212 | 53 | 256 | 0.0 | 0.0 | 0.24 | 0.96 | 0.96 | 96 | 1013.1 |
| 20260501200709 | 53 | 272 | 0.0 | 0.0 | 0.24 | 0.94 | 0.94 | 96 | 1013.3 |
| 20260501200206 | 53 | 320 | 3.0 | 7.0 | 0.19 | 0.92 | 0.92 | 96 | 1013.7 |
| 20260501195704 | 53 | 237 | 0.0 | 0.0 | 0.12 | 0.90 | 0.90 | 96 | 1013.7 |
| 20260501195200 | 53 | 263 | 1.0 | 1.0 | 0.12 | 0.89 | 0.89 | 96 | 1013.6 |
| 20260501194655 | 53 | 26 | 0.0 | 0.0 | 0.12 | 0.88 | 0.88 | 96 | 1014.1 |